Temperature
19 18 17 17 17 17 17 17 17 17 17 17 17 17 17 17 17 16 17 16 16 16 16 16 16 16 16 16 16 16 16 16 16 17 17 17 17 17 17 17 17 17 16
19 18 17 17 17 17 17 17 17 17 17 17 17 17 17 17 16 16 17 16 16 16 16 16 16 16 16 15 15 15 17 17 16 17 18 18 18 17 17 17 17 17 16
19 18 17 17 17 17 17 17 17 17 17 17 17 17 17 17 16 16 16 16 16 16 16 16 16 15 16 16 15 15 16 17 16 17 18 18 19 18 17 17 17 17 17
19 18 17 17 17 17 17 17 17 17 17 17 17 17 17 17 17 16 16 16 16 16 16 15 15 15 16 15 16 15 16 16 17 16 16 17 17 18 19 18 17 17 16
20 18 17 17 17 16 16 16 17 17 17 17 17 17 17 17 17 16 16 16 16 16 16 15 15 15 15 15 15 15 15 16 16 17 17 17 17 17 18 19 18 17 17
19 18 17 17 16 16 16 16 16 16 17 17 16 17 16 16 17 16 16 16 16 16 16 15 15 15 15 15 15 15 15 15 16 16 16 17 17 18 18 18 18 18 18
19 18 17 17 16 16 16 16 16 17 17 17 17 17 17 16 17 17 16 16 16 16 16 16 16 15 15 15 15 15 15 15 15 15 16 16 17 17 17 18 18 18 18
20 19 18 17 17 17 16 16 16 17 17 17 17 17 17 16 16 16 16 16 16 16 16 16 16 16 15 15 15 15 15 15 15 15 15 16 16 16 16 17 17 18 18
20 19 18 18 17 17 17 17 17 17 17 17 17 17 17 16 16 16 16 16 16 16 16 16 16 16 16 15 16 15 15 15 15 15 15 15 16 15 16 16 16 17 18
21 20 19 18 18 17 17 17 17 17 17 17 17 16 17 17 16 16 16 16 16 16 16 16 16 16 16 16 16 15 15 15 15 15 15 15 15 16 15 15 16 16 16
21 20 19 19 18 17 17 17 17 17 17 17 16 16 16 16 16 16 16 16 16 16 16 16 16 16 16 16 16 15 15 15 15 15 15 15 15 15 15 15 15 15 15
21 20 20 19 18 18 17 17 17 17 17 17 17 16 16 16 16 16 16 16 16 16 16 16 16 16 16 16 15 15 15 15 15 15 14 14 14 14 15 15 15 15 15
21 20 20 19 19 18 18 17 17 17 17 16 16 16 16 16 16 16 16 16 16 16 16 16 16 16 16 16 15 15 15 15 15 15 14 14 14 14 14 14 14 14 14
21 20 20 19 19 18 18 18 17 17 17 17 16 16 16 16 16 16 16 16 16 16 16 16 16 15 15 15 15 15 15 15 15 14 14 14 14 14 13 13 14 14 14
20 20 19 19 18 18 18 17 17 17 17 17 17 17 16 16 16 16 16 16 16 16 16 15 15 15 15 15 15 15 15 14 14 14 14 13 13 13 13 13 13 13 13
20 19 19 18 18 17 17 17 17 17 16 17 16 16 16 16 16 16 16 15 15 15 15 15 15 15 15 15 14 14 14 14 13 13 13 13 13 13 13 13 12 12 12
20 19 18 18 17 17 17 17 17 17 16 16 16 16 16 15 15 15 15 15 15 15 14 14 14 14 14 14 14 13 13 13 12 12 12 12 12 12 11 11 11 11 11
18 18 17 17 16 16 16 16 16 16 16 16 16 15 15 15 15 14 14 14 14 14 13 13 13 13 13 13 13 13 12 12 11 11 11 11 11 11 11 11 10 10 10
17 16 16 16 16 16 16 15 15 15 15 15 14 14 14 14 14 13 13 13 13 13 12 12 12 12 12 12 12 11 11 11 10 10 10 10 10 10 10 9 9 9 9
15 15 15 15 15 15 15 15 14 14 14 14 13 13 13 13 13 13 12 12 12 12 11 11 11 11 11 11 11 10 10 10 9 9 9 9 9 9 9 8 8 7 7
14 14 14 14 14 14 14 14 13 13 13 13 13 12 12 12 12 12 12 11 11 11 10 10 10 10 10 10 10 10 9 9 9 9 8 8 8 8 7 7 7 6 7
13 13 13 13 12 13 13 13 12 12 12 12 12 12 11 11 11 11 11 10 10 10 10 9 9 9 9 9 9 9 8 8 7 7 7 7 7 7 7 6 6 6 6
12 12 12 12 11 12 12 12 11 11 11 11 11 11 11 10 10 10 10 10 10 10 10 10 9 9 8 7 7 7 7 7 7 6 6 6 6 6 5 5 5 5 5
11 11 11 11 10 10 11 11 10 11 11 11 10 10 10 10 10 9 10 10 10 10 9 9 9 8 7 6 6 6 6 5 6 5 5 5 5 5 5 5 5 4 4
10 10 10 10 10 10 10 10 10 10 10 10 10 10 9 9 9 9 9 9 9 8 8 7 7 7 6 6 6 5 5 5 5 5 5 5 5 5 5 4 4 3 3
9 10 10 9 9 9 9 10 10 10 10 9 9 10 9 9 9 8 8 8 8 7 7 7 6 5 5 5 5 4 4 4 4 4 4 4 4 4 3 3 3 2 2
Wind_Speed
9 8 9 10 11 12 14 14 13 13 11 9 10 9 8 7 6 6 6 6 5 6 4 3 4 3 2 2 3 3 4 3 2 3 4 4 4 4 4 4 4 6 6
9 9 9 10 11 13 13 14 14 14 12 10 8 7 8 6 6 5 6 6 6 6 5 3 4 3 2 3 2 3 3 2 3 3 3 4 5 5 4 4 4 4 6
8 9 9 10 11 13 14 13 14 13 13 12 9 8 7 6 6 6 6 6 6 5 4 4 3 3 4 3 3 3 4 3 3 3 3 3 2 4 5 4 4 4 4
7 7 8 9 11 12 13 13 14 13 12 12 12 12 10 8 7 7 6 6 6 6 5 4 4 3 3 2 4 3 3 3 4 3 3 3 4 2 2 5 6 5 5
7 7 7 8 9 11 12 12 13 13 13 13 13 12 10 8 7 7 8 7 6 6 6 5 4 3 3 2 1 2 3 4 4 3 3 3 3 5 5 2 3 5 5
8 8 7 8 9 11 11 12 13 13 13 13 13 13 11 10 9 9 9 8 7 6 7 6 5 4 3 3 3 3 3 2 2 4 4 4 4 5 5 4 5 4 4
9 9 9 10 11 12 12 12 13 14 14 14 13 13 12 11 11 10 9 8 7 7 7 6 5 4 4 4 3 3 2 3 2 3 3 3 4 4 4 5 5 4 3
10 10 11 11 11 12 13 13 14 14 14 14 13 12 11 10 9 10 8 8 6 6 7 7 6 6 5 5 4 4 4 3 4 3 3 3 3 3 4 5 5 5 5
11 11 12 12 12 12 12 13 14 14 14 14 13 12 12 10 9 9 9 8 6 6 7 7 6 6 6 5 5 4 4 4 5 5 5 5 3 4 4 4 5 6 6
12 12 12 12 12 12 12 12 13 14 13 13 12 11 12 11 9 9 8 7 6 6 7 7 7 7 7 7 6 6 5 5 5 4 4 5 5 4 5 5 5 6 7
13 13 12 12 12 13 13 13 13 13 13 12 12 11 11 11 10 9 8 7 7 7 7 7 7 7 7 7 7 7 6 7 6 6 6 7 6 5 5 5 6 6 6
14 14 13 13 13 13 13 14 13 13 13 13 12 11 11 10 10 9 8 7 7 6 6 7 7 7 7 7 8 8 7 7 7 7 6 7 6 6 6 5 6 6 6
14 14 14 13 13 13 13 14 14 14 13 13 12 12 11 11 10 9 7 6 5 5 5 5 6 5 5 6 6 6 6 6 6 5 5 6 6 6 6 6 6 6 6
15 15 14 13 13 13 13 13 13 13 13 12 12 11 10 9 8 7 7 6 5 4 4 4 3 3 3 4 4 4 4 4 3 3 3 3 3 4 5 6 6 6 7
15 15 14 13 12 12 12 12 12 12 12 11 11 10 8 8 8 7 7 6 5 5 4 4 3 2 1 0 1 2 2 2 2 1 1 2 3 4 3 4 4 5 6
15 15 14 13 13 12 12 11 11 10 10 11 10 9 8 8 8 7 7 7 6 6 5 5 4 4 4 6 6 2 1 1 1 2 2 2 3 2 2 3 4 4 6
15 14 13 12 11 11 11 11 10 10 10 10 10 10 9 9 8 8 9 8 8 7 7 7 7 7 8 9 7 5 3 3 3 3 2 2 3 3 3 2 2 3 3
13 12 11 11 10 11 11 11 11 11 11 11 11 10 10 11 10 10 10 9 8 9 9 9 9 10 10 11 9 5 4 5 5 5 4 4 4 7 7 6 5 5 4
10 10 11 11 11 12 13 13 13 12 12 12 11 11 11 12 11 11 10 10 10 10 10 10 10 10 9 11 10 6 4 5 5 4 5 4 5 8 8 6 6 6 6
10 11 12 13 13 13 14 15 14 14 13 12 12 12 12 12 12 11 11 10 10 10 10 10 9 9 9 11 11 8 3 3 2 2 3 7 7 7 8 7 7 7 8
13 13 14 13 13 14 15 16 15 14 14 13 13 13 13 12 12 11 10 10 10 10 9 9 9 9 9 10 11 11 5 4 3 3 3 4 7 6 6 8 7 7 9
15 15 15 14 13 14 16 17 16 14 14 14 14 14 13 12 12 11 10 9 9 9 8 7 6 6 7 8 8 9 8 8 5 5 5 5 6 7 9 7 5 8 11
16 16 17 17 15 14 15 17 15 14 15 15 15 14 13 11 10 10 9 8 6 5 5 4 4 4 4 5 6 4 2 3 5 5 4 4 7 10 9 6 7 10 9
16 17 18 18 16 15 15 14 14 14 15 15 14 12 12 11 9 7 6 5 4 4 3 3 2 2 3 5 6 5 3 2 4 7 5 10 12 10 9 8 6 6 7
15 16 17 17 16 14 14 13 12 13 14 13 12 11 11 10 9 9 9 8 10 8 6 5 5 5 5 8 9 8 8 8 8 10 10 8 7 7 7 7 7 8 8
15 16 17 17 15 14 14 12 11 11 11 11 10 9 8 8 8 9 10 15 12 14 15 14 10 9 10 6 6 6 6 7 10 10 7 7 7 8 8 9 9 9 8
Wind_Direction
185 183 181 180 182 183 181 178 177 172 169 168 170 168 165 166 163 166 162 170 177 172 194 185 168 219 195 207 195 201 176 193 188 200 184 180 187 183 186 204 203 186 193
183 182 179 180 183 183 182 180 179 176 175 171 169 168 161 165 160 159 154 171 176 179 181 196 196 193 179 192 204 225 232 172 197 236 214 195 184 198 191 191 201 196 193
188 185 186 189 187 186 186 183 179 176 177 167 160 156 155 161 162 165 167 178 181 183 181 187 208 191 213 179 203 211 225 214 197 243 267 257 222 176 180 201 199 203 212
186 185 189 192 192 189 184 180 176 174 173 169 174 174 178 176 174 174 165 171 182 184 181 185 190 210 214 170 207 193 225 241 221 196 255 304 342 283 191 191 192 199 215
180 180 183 184 183 179 176 173 172 171 172 178 179 180 183 177 168 169 164 178 178 188 190 189 188 198 209 186 216 181 241 238 255 235 219 226 237 259 277 242 200 202 209
171 167 169 167 166 170 170 169 168 168 173 179 182 185 182 176 169 175 174 185 180 187 189 191 191 199 195 183 200 206 203 249 276 274 251 241 245 246 253 258 241 227 202
169 165 167 167 166 167 168 171 171 171 177 182 185 186 184 181 181 184 184 190 183 184 182 188 193 198 195 201 205 208 225 213 224 245 254 261 268 283 278 277 272 262 226
171 168 168 167 169 169 170 173 175 175 179 183 185 187 187 190 190 192 189 190 192 185 174 187 195 200 202 205 204 218 210 211 223 231 255 258 252 261 267 277 281 266 247
172 170 168 169 170 171 172 175 178 179 180 184 183 186 191 196 192 186 195 192 193 187 183 192 199 202 204 209 212 222 219 213 227 221 212 235 233 242 255 263 272 278 278
173 171 169 169 169 171 172 173 174 177 178 181 185 188 190 191 190 195 193 193 193 196 195 199 203 205 204 207 217 221 214 223 229 244 250 246 246 241 244 249 254 261 272
173 171 170 170 170 170 171 172 174 176 179 182 187 189 188 187 188 195 197 197 203 199 205 207 209 211 211 210 215 230 221 226 229 230 231 235 255 254 251 245 249 251 256
171 171 170 169 171 173 173 175 177 179 181 183 185 189 189 187 189 195 201 202 208 212 211 214 216 218 218 216 219 226 225 226 231 234 238 242 237 238 257 259 256 256 260
172 172 172 174 176 176 175 175 179 180 180 181 183 185 188 187 192 195 197 198 202 210 214 215 216 218 221 221 225 229 230 232 234 235 237 244 247 246 252 257 262 263 258
174 175 175 177 177 176 176 177 178 179 180 180 182 182 185 184 186 184 181 183 188 190 189 190 196 207 218 223 226 224 226 224 221 225 233 247 253 256 262 258 262 268 271
176 178 176 175 177 176 175 176 177 176 177 178 178 173 171 170 168 165 165 166 167 167 159 154 150 157 172 63 232 214 204 197 192 167 132 80 62 34 346 300 289 279 269
178 175 172 171 173 173 173 170 170 167 167 169 165 155 153 155 153 152 148 142 136 129 125 123 115 98 76 57 47 25 89 102 118 110 101 117 96 80 78 15 345 323 289
175 172 169 166 164 163 162 159 154 149 151 147 140 138 138 135 132 132 129 125 120 115 108 102 95 86 64 51 55 49 74 76 68 66 49 30 47 23 351 321 255 275 270
168 162 157 152 149 144 140 135 133 132 129 126 125 126 127 121 117 115 113 112 109 106 102 97 93 87 67 51 51 45 83 76 68 59 48 39 32 24 0 338 325 312 302
152 145 141 136 132 132 131 127 123 118 114 113 115 118 117 114 113 111 109 108 107 104 102 97 93 88 71 47 38 15 81 79 70 59 52 41 43 38 358 329 321 314 308
124 124 122 120 119 120 121 118 113 110 108 107 105 104 105 108 109 109 109 107 106 105 103 96 89 86 76 53 36 9 49 65 54 69 96 75 48 28 356 332 321 313 316
114 115 113 110 112 116 115 110 107 105 106 106 105 103 104 106 107 107 107 111 109 105 103 101 95 85 75 69 45 20 23 13 357 349 340 62 54 8 335 312 311 323 311
113 112 107 103 105 109 110 107 105 107 109 107 105 105 106 107 107 107 107 109 115 118 115 111 107 101 88 68 63 47 34 358 347 334 341 20 13 324 300 298 324 303 288
109 108 105 100 97 99 104 105 107 111 110 107 105 104 103 102 107 112 117 121 123 120 118 118 110 99 91 108 124 120 92 355 335 341 10 315 286 287 276 235 258 279 289
108 107 103 100 97 96 96 99 105 107 107 106 106 106 106 103 95 93 95 93 87 89 91 78 68 72 69 35 17 359 353 288 310 329 288 234 238 252 276 290 280 299 320
105 103 102 101 100 98 97 100 104 106 107 108 109 109 104 99 91 75 53 61 54 44 37 41 34 21 46 43 23 4 0 350 348 323 304 311 323 322 328 329 329 325 323
107 107 107 106 105 101 98 97 100 104 109 111 110 110 112 111 112 106 90 60 69 70 64 51 45 68 65 57 33 17 351 321 312 307 319 334 335 333 332 329 327 327 328
Height
1497 1498 1500 1501 1504 1507 1511 1516 1520 1525 1529 1533 1537 1541 1544 1547 1550 1552 1553 1555 1557 1558 1559 1562 1561 1563 1564 1564 1565 1566 1567 1568 1569 1570 1571 1572 1573 1573 1574 1575 1576 1577 1578
1496 1497 1498 1500 1502 1505 1508 1512 1517 1522 1527 1531 1536 1539 1543 1546 1548 1551 1552 1554 1556 1557 1559 1560 1561 1562 1562 1563 1564 1565 1567 1568 1568 1570 1570 1571 1573 1573 1574 1574 1575 1576 1577
1493 1495 1497 1498 1500 1502 1505 1509 1514 1520 1524 1529 1533 1537 1541 1544 1547 1549 1551 1553 1554 1556 1557 1558 1560 1560 1562 1563 1563 1564 1565 1567 1568 1569 1570 1570 1570 1571 1573 1573 1574 1575 1576
1491 1493 1494 1495 1497 1499 1502 1506 1511 1516 1521 1526 1531 1535 1539 1542 1545 1548 1550 1551 1553 1555 1556 1557 1558 1559 1561 1561 1563 1563 1565 1566 1568 1568 1569 1570 1570 1571 1571 1572 1573 1573 1574
1489 1491 1492 1493 1494 1497 1500 1504 1509 1514 1519 1524 1528 1533 1537 1541 1544 1546 1548 1550 1552 1554 1555 1556 1557 1558 1560 1560 1561 1561 1563 1565 1566 1567 1568 1569 1570 1571 1571 1570 1572 1572 1573
1488 1490 1491 1492 1494 1496 1499 1503 1507 1512 1517 1522 1527 1531 1535 1539 1542 1545 1547 1549 1551 1553 1554 1555 1556 1557 1559 1559 1560 1560 1561 1563 1564 1565 1567 1568 1569 1569 1570 1570 1570 1570 1571
1486 1489 1490 1492 1494 1496 1499 1503 1507 1511 1515 1520 1525 1529 1534 1537 1540 1543 1546 1548 1551 1552 1552 1554 1555 1556 1557 1558 1559 1559 1561 1561 1562 1563 1565 1566 1567 1568 1568 1568 1568 1569 1569
1485 1487 1490 1492 1494 1497 1499 1502 1506 1510 1514 1518 1523 1528 1532 1536 1540 1542 1545 1547 1549 1551 1552 1552 1553 1555 1556 1557 1557 1559 1559 1560 1561 1562 1562 1563 1565 1565 1566 1567 1567 1567 1567
1483 1486 1489 1491 1494 1496 1499 1501 1504 1508 1513 1517 1521 1525 1530 1534 1537 1540 1543 1545 1547 1549 1550 1551 1552 1553 1554 1556 1556 1558 1558 1558 1559 1561 1561 1562 1563 1563 1564 1564 1565 1566 1564
1482 1485 1488 1491 1493 1496 1499 1500 1502 1506 1511 1515 1520 1524 1528 1531 1535 1538 1541 1543 1545 1547 1549 1550 1551 1552 1553 1554 1555 1556 1556 1557 1557 1558 1558 1559 1561 1561 1561 1562 1562 1562 1563
1480 1484 1487 1490 1493 1496 1499 1501 1503 1506 1510 1514 1518 1522 1525 1529 1532 1536 1539 1541 1543 1545 1547 1548 1549 1550 1551 1552 1553 1554 1554 1555 1555 1556 1556 1556 1557 1558 1559 1559 1559 1559 1559
1479 1482 1486 1489 1493 1495 1498 1501 1503 1506 1509 1513 1516 1520 1523 1526 1530 1533 1536 1539 1541 1543 1544 1546 1547 1548 1549 1550 1550 1551 1552 1552 1552 1553 1553 1554 1554 1554 1554 1555 1555 1555 1555
1477 1481 1485 1488 1491 1494 1497 1500 1503 1506 1509 1512 1515 1518 1521 1524 1527 1531 1534 1536 1538 1540 1542 1543 1544 1546 1546 1547 1547 1548 1548 1549 1549 1549 1550 1550 1550 1550 1551 1550 1551 1551 1551
1476 1479 1483 1486 1489 1492 1495 1498 1502 1504 1507 1510 1513 1516 1519 1522 1525 1528 1531 1533 1535 1537 1539 1540 1541 1542 1543 1544 1544 1544 1545 1545 1545 1545 1545 1545 1545 1545 1546 1546 1546 1546 1546
1473 1477 1480 1484 1487 1490 1493 1496 1500 1502 1505 1508 1511 1514 1517 1520 1523 1525 1528 1530 1533 1535 1536 1537 1538 1539 1540 1541 1541 1541 1541 1541 1541 1541 1541 1541 1541 1541 1541 1542 1541 1541 1541
1471 1474 1478 1481 1485 1488 1491 1494 1497 1500 1502 1505 1509 1512 1515 1518 1520 1522 1525 1528 1530 1532 1533 1534 1536 1537 1537 1537 1538 1538 1538 1538 1538 1538 1538 1537 1537 1537 1537 1536 1536 1536 1536
1469 1472 1476 1479 1483 1486 1489 1492 1495 1497 1500 1503 1506 1509 1512 1515 1518 1521 1523 1526 1528 1530 1531 1532 1533 1534 1534 1534 1535 1535 1535 1535 1535 1535 1535 1535 1534 1533 1533 1532 1531 1531 1530
1467 1471 1474 1478 1482 1485 1488 1491 1494 1497 1499 1502 1505 1508 1511 1514 1517 1520 1522 1525 1526 1528 1529 1530 1531 1532 1532 1533 1533 1533 1533 1533 1533 1533 1532 1532 1531 1530 1529 1529 1528 1527 1526
1466 1470 1473 1477 1480 1484 1487 1490 1494 1497 1500 1502 1505 1508 1511 1514 1517 1519 1522 1525 1526 1528 1529 1530 1531 1531 1531 1532 1532 1532 1533 1532 1532 1531 1530 1529 1528 1526 1526 1525 1524 1522 1521
1466 1470 1473 1476 1480 1484 1487 1490 1494 1497 1501 1504 1507 1509 1512 1515 1518 1520 1523 1525 1527 1528 1530 1530 1531 1531 1531 1532 1532 1532 1532 1532 1531 1530 1529 1527 1525 1524 1522 1521 1520 1519 1517
1467 1471 1474 1477 1481 1485 1488 1491 1495 1499 1502 1505 1508 1511 1514 1518 1520 1522 1524 1526 1528 1529 1530 1531 1532 1532 1532 1532 1532 1531 1531 1531 1530 1530 1529 1526 1523 1521 1519 1517 1516 1514 1512
1469 1473 1476 1479 1484 1488 1490 1492 1496 1501 1505 1508 1511 1514 1518 1521 1523 1524 1526 1528 1529 1531 1532 1532 1533 1533 1532 1532 1531 1530 1529 1529 1528 1527 1526 1523 1520 1517 1515 1514 1512 1510 1507
1472 1476 1478 1482 1487 1491 1494 1496 1500 1504 1508 1511 1514 1517 1520 1523 1525 1527 1529 1530 1532 1533 1534 1534 1535 1535 1534 1532 1530 1529 1528 1526 1525 1524 1521 1519 1516 1514 1512 1510 1508 1506 1505
1476 1479 1482 1486 1492 1496 1499 1502 1505 1508 1511 1515 1517 1520 1523 1526 1527 1530 1532 1533 1534 1534 1534 1535 1535 1534 1534 1532 1530 1529 1528 1525 1524 1522 1519 1516 1514 1512 1510 1508 1506 1504 1502
1481 1484 1487 1492 1496 1500 1503 1507 1510 1513 1515 1518 1521 1523 1526 1528 1529 1530 1531 1532 1532 1532 1533 1533 1533 1533 1532 1528 1527 1525 1524 1522 1520 1517 1516 1516 1514 1511 1509 1506 1504 1501 1498
1485 1490 1494 1497 1502 1505 1508 1512 1515 1517 1519 1521 1524 1526 1528 1529 1531 1531 1531 1531 1531 1531 1531 1530 1530 1529 1528 1526 1524 1523 1521 1519 1517 1515 1515 1513 1511 1508 1506 1503 1500 1498 1495